TimeMST,TemperatureF,Dew PointF,Humidity,Sea Level PressureIn,VisibilityMPH,Wind Direction,Wind SpeedMPH,Gust SpeedMPH,PrecipitationIn,Events,Conditions,WindDirDegrees,DateUTC
12:53 AM,36.0,-5.1,17,30.33,10.0,NNE,20.7,28.8,N/A,,Overcast,30,2013-11-23 07:53:00
1:53 AM,37.0,-5.1,17,30.32,10.0,NNE,26.5,-,N/A,,Overcast,30,2013-11-23 08:53:00
2:53 AM,36.0,-2.9,19,30.35,10.0,NNE,21.9,-,N/A,,Overcast,30,2013-11-23 09:53:00
3:53 AM,36.0,-0.0,22,30.34,10.0,NNE,15.0,-,N/A,,Overcast,20,2013-11-23 10:53:00
4:53 AM,36.0,3.9,26,30.34,10.0,North,11.5,-,N/A,,Overcast,360,2013-11-23 11:53:00
5:53 AM,35.1,17.1,48,30.34,10.0,NW,4.6,-,N/A,,Overcast,310,2013-11-23 12:53:00
6:53 AM,36.0,12.0,37,30.32,10.0,NNE,12.7,-,N/A,,Overcast,30,2013-11-23 13:53:00
7:53 AM,36.0,15.1,43,30.32,10.0,NNE,15.0,-,N/A,,Overcast,30,2013-11-23 14:53:00
8:53 AM,37.0,18.0,46,30.31,10.0,NNE,16.1,25.3,N/A,,Overcast,30,2013-11-23 15:53:00
9:53 AM,37.0,19.0,48,30.32,10.0,NE,21.9,25.3,N/A,,Overcast,40,2013-11-23 16:53:00
10:53 AM,39.9,19.0,43,30.29,10.0,NNE,13.8,-,N/A,,Overcast,20,2013-11-23 17:53:00
11:53 AM,43.0,21.0,42,30.24,10.0,NNE,11.5,-,N/A,,Overcast,30,2013-11-23 18:53:00
12:53 PM,41.0,19.9,43,30.25,10.0,ENE,18.4,-,N/A,,Overcast,60,2013-11-23 19:53:00
1:51 PM,37.4,26.6,65,30.20,4.0,NE,12.7,-,0.00,Snow,Light Snow,50,2013-11-23 20:51:00
1:53 PM,37.0,27.0,67,30.27,2.5,NE,15.0,-,0.00,Snow,Light Snow,50,2013-11-23 20:53:00
2:02 PM,36.0,28.0,73,30.20,1.2,NE,11.5,-,0.00,Snow,Light Snow,40,2013-11-23 21:02:00
2:16 PM,34.0,28.9,82,30.20,0.8,NNE,11.5,-,0.00,Snow,Light Snow,30,2013-11-23 21:16:00
2:37 PM,33.1,28.9,85,30.19,1.0,NNE,11.5,-,0.01,Snow,Light Snow,30,2013-11-23 21:37:00
2:50 PM,33.8,28.4,81,30.18,0.8,NNE,11.5,-,0.01,Snow,Light Snow,20,2013-11-23 21:50:00
2:53 PM,33.1,28.9,85,30.26,1.0,North,9.2,-,0.01,Snow,Light Snow,10,2013-11-23 21:53:00
3:13 PM,35.1,30.0,82,30.17,2.5,North,10.4,-,0.01,Snow,Light Snow,350,2013-11-23 22:13:00
3:23 PM,35.1,30.0,82,30.17,5.0,NW,5.8,-,0.01,Snow,Light Snow,320,2013-11-23 22:23:00
3:53 PM,36.0,33.1,89,30.24,10.0,West,6.9,-,0.01,,Overcast,260,2013-11-23 22:53:00
4:05 PM,35.1,33.1,92,30.17,10.0,West,5.8,-,N/A,,Overcast,280,2013-11-23 23:05:00
4:53 PM,37.0,32.0,82,30.22,10.0,Calm,Calm,-,N/A,,Overcast,0,2013-11-23 23:53:00
5:17 PM,37.0,30.9,79,30.16,10.0,Calm,Calm,-,N/A,,Overcast,0,2013-11-24 00:17:00
5:30 PM,37.0,28.9,73,30.16,4.0,North,6.9,-,0.00,Snow,Light Snow,360,2013-11-24 00:30:00
5:40 PM,35.1,30.0,82,30.16,2.0,Variable,6.9,-,0.00,Snow,Light Snow,0,2013-11-24 00:40:00
5:53 PM,35.1,30.0,82,30.24,3.0,NNE,8.1,-,0.00,Snow,Light Snow,20,2013-11-24 00:53:00
6:02 PM,34.0,30.0,85,30.16,2.0,NNE,5.8,-,0.00,Snow,Light Snow,20,2013-11-24 01:02:00
6:09 PM,34.0,30.0,85,30.16,1.5,North,4.6,-,0.01,Snow,Light Snow,360,2013-11-24 01:09:00
6:44 PM,33.1,30.9,92,30.16,1.2,Calm,Calm,-,0.04,Snow,Light Snow,0,2013-11-24 01:44:00
6:53 PM,33.1,30.9,92,30.24,1.5,WNW,3.5,-,0.04,Snow,Light Snow,290,2013-11-24 01:53:00
7:00 PM,33.1,32.0,96,30.16,1.8,Calm,Calm,-,0.00,Snow,Light Snow,0,2013-11-24 02:00:00
7:20 PM,33.1,32.0,96,30.16,2.5,Calm,Calm,-,0.02,Snow,Light Snow,0,2013-11-24 02:20:00
7:40 PM,33.1,30.9,92,30.16,1.0,West,3.5,-,0.02,Snow,Light Snow,270,2013-11-24 02:40:00
7:53 PM,33.1,32.0,96,30.23,0.8,West,3.5,-,0.02,,Overcast,270,2013-11-24 02:53:00
8:27 PM,33.1,30.9,92,30.16,2.0,Calm,Calm,-,0.01,,Overcast,0,2013-11-24 03:27:00
8:35 PM,33.1,30.9,92,30.15,3.0,Calm,Calm,-,0.01,,Overcast,0,2013-11-24 03:35:00
8:53 PM,33.1,30.9,92,30.23,4.0,Calm,Calm,-,0.01,,Overcast,0,2013-11-24 03:53:00
9:15 PM,34.0,32.0,92,30.16,9.0,Calm,Calm,-,N/A,,Overcast,0,2013-11-24 04:15:00
9:36 PM,34.0,32.0,92,30.16,6.0,SE,4.6,-,0.00,Snow,Light Snow,130,2013-11-24 04:36:00
9:53 PM,34.0,32.0,92,30.23,9.0,Calm,Calm,-,0.00,,Overcast,0,2013-11-24 04:53:00
10:12 PM,34.0,32.0,92,30.16,8.0,Calm,Calm,-,0.01,,Overcast,0,2013-11-24 05:12:00
10:53 PM,34.0,30.9,89,30.22,7.0,Calm,Calm,-,0.01,,Overcast,0,2013-11-24 05:53:00
11:10 PM,34.0,30.9,89,30.16,10.0,Calm,Calm,-,0.00,,Overcast,0,2013-11-24 06:10:00
11:53 PM,33.1,32.0,96,30.21,6.0,Calm,Calm,-,0.01,,Overcast,0,2013-11-24 06:53:00